sat.trackr.live / text

‹ back to catalog

ICEYE-X56

NORAD 64574 · 2025-135AY

PAYLOAD ACTIVE UNKNOWN

§ Identity

Operator
Country
FIN
Launch date
2025-06-23
Launch site
AFWTR
Launch vehicle
Mass (kg)
RCS (m²)

External: N2YO · Heavens-Above · Gunter

§ Orbital elements

Epoch: 2026-05-25T03:35:09.517344Z

Period
96.29 min
Inclination
97.7720°
Eccentricity
0.0003332
Mean motion
14.95456268 rev/d
Perigee alt
578.6 km
Apogee alt
583.3 km
Semi-major
6,959.1 km
B*
2.3967e-4
RAAN
260.2943°
Arg perigee
71.2391°
Mean anomaly
288.9191°
Rev number
5,048

§ Raw data

ICEYE-X561 64574U 25135AY  26145.14941571  .00002593  00000+0  23967-3 0  99902 64574  97.7720 260.2943 0003332  71.2391 288.9191 14.95456268 50485

JSON: /api/v1/satellites/64574 · /tle

For live sub-satellite position, see the globe view (requires WebGL).

§ Visibility from observer

Set your observer location to see the next 7 days of passes ≥ 10°. The values pass through the URL so the page stays shareable.

No JS? Fill the form by hand. The geolocation button needs JavaScript.

§ Radio — SatNOGS DB

ModeDescriptionDownlinkUplink
S-band telemetry 2.270 GHz

1 transmitter · refreshed weekly from db.satnogs.org